Volver al catálogo

STARLINK-3857

ActivoComunicacionesVLEO
NORAD 52494·PAYLOAD·🇺🇸 United States

Lanzado May 6, 2022 desde Cape Canaveral Space Force Station

Loading…

Próximos Pases (próximas 24 horas)

TLE

ActualizadoSource: CelesTrak SupGP

Época: Sep 15, 2026, 01:27 UTC

1 52494C 22049AV  26258.06090278 -.00043122  00000+0 -12742-2 0  2585
2 52494  53.1567 263.4901 0001363  97.8697 359.3189 15.34407294    15

Sigue STARLINK-3857 en tiempo real con AllMySat

Download on the App Store